EDT,Max TemperatureF,Mean TemperatureF,Min TemperatureF,Max Dew PointF,MeanDew PointF,Min DewpointF,Max Humidity, Mean Humidity, Min Humidity, Max Sea Level PressureIn, Mean Sea Level PressureIn, Min Sea Level PressureIn, Max VisibilityMiles, Mean VisibilityMiles, Min VisibilityMiles, Max Wind SpeedMPH, Mean Wind SpeedMPH, Max Gust SpeedMPH,PrecipitationIn, CloudCover, Events, WindDirDegrees
2013-8-1,82,75,68,75,71,66,95,87,70,30.03,29.91,29.84,10,8,0,23,8,33,1.82,6,Fog-Rain-Thunderstorm,177
2013-8-2,86,77,68,72,70,67,94,76,59,29.99,29.95,29.87,10,10,10,8,4,,0.00,0,,268
2013-8-3,86,78,71,75,71,68,96,85,69,30.00,29.95,29.91,10,8,1,17,6,29,0.56,4,Rain-Thunderstorm,226
2013-8-4,82,75,68,72,64,55,94,69,39,30.03,29.95,29.88,10,10,10,12,6,21,0.00,1,,347
2013-8-5,82,72,64,65,60,56,87,63,42,30.10,30.05,30.02,10,10,10,8,4,,0.00,2,,326
2013-8-6,73,70,66,67,65,59,94,87,61,30.11,30.07,30.02,10,7,2,13,7,,0.40,7,Rain-Thunderstorm,120
2013-8-7,85,78,70,72,70,68,93,78,61,30.11,30.08,30.04,10,10,10,10,6,,0.00,3,,165
2013-8-8,87,80,74,75,73,71,90,79,63,30.08,30.05,30.01,10,10,10,8,7,,0.00,2,,170
2013-8-9,91,83,76,76,75,73,93,77,61,30.02,29.98,29.92,10,10,7,10,7,20,0.00,1,,215
2013-8-10,88,80,75,76,74,73,96,84,70,30.09,30.03,29.99,10,9,1,17,6,39,0.46,4,Rain-Thunderstorm,346
2013-8-11,85,79,73,76,73,71,97,84,66,30.11,30.05,30.00,10,8,0,14,3,20,0.91,4,Rain-Thunderstorm,93
2013-8-12,88,80,74,79,76,73,97,83,66,30.03,29.98,29.93,10,10,10,8,4,,0.00,3,Rain,225
2013-8-13,87,82,77,77,75,73,94,80,63,29.92,29.82,29.76,10,10,10,12,5,,0.00,2,,243
2013-8-14,77,72,67,74,58,48,89,62,46,30.10,29.95,29.77,10,10,10,15,9,22,0.00,3,,349
2013-8-15,77,70,62,60,57,53,88,65,45,30.16,30.13,30.08,10,10,10,9,6,,0.00,2,,48
2013-8-16,77,68,59,62,59,55,93,70,48,30.19,30.14,30.11,10,10,10,8,3,,0.00,3,,33
2013-8-17,78,73,69,70,68,61,94,84,57,30.22,30.17,30.15,10,9,4,13,6,22,0.37,7,Rain,54
2013-8-18,72,69,66,70,68,64,95,93,88,30.21,30.15,30.10,10,8,2,12,7,21,0.38,8,Rain,19
2013-8-19,75,70,66,70,67,64,100,88,78,30.20,30.14,30.09,10,10,9,7,3,,0.04,5,,198
2013-8-20,81,74,68,70,69,66,100,83,67,30.19,30.16,30.10,10,10,9,7,2,,0.00,4,,273
2013-8-21,86,78,71,74,72,69,92,81,63,30.23,30.16,30.11,10,10,10,8,4,,0.01,2,Rain-Thunderstorm,154
2013-8-22,88,80,73,74,71,69,90,81,59,30.12,30.06,29.97,10,10,2,7,5,,0.16,2,Rain-Thunderstorm,218
2013-8-23,84,76,67,70,66,60,89,78,62,30.10,30.01,29.93,10,10,7,10,5,,0.04,3,Rain-Thunderstorm,11
2013-8-24,82,72,64,65,61,59,88,71,49,30.33,30.21,30.10,10,10,7,12,6,17,0.09,3,Rain,59
2013-8-25,78,69,61,62,58,55,91,69,46,30.40,30.35,30.31,10,10,10,9,3,17,0.00,0,,65
2013-8-26,82,70,58,62,59,56,91,68,45,30.33,30.21,30.08,10,10,10,7,3,,0.00,0,,211
2013-8-27,89,78,67,72,66,58,81,68,51,30.07,29.98,29.92,10,10,10,8,5,,0.00,1,,228
2013-8-28,85,79,74,73,72,71,91,83,63,29.93,29.88,29.84,10,7,1,10,4,,0.97,5,Rain-Thunderstorm,248
2013-8-29,83,77,70,72,70,64,94,81,63,30.02,29.89,29.80,10,10,2,13,7,18,0.61,5,Rain,56
2013-8-30,83,74,66,69,67,64,94,79,59,30.06,30.01,29.96,10,10,2,9,2,,0.00,1,,74
2013-8-31,87,78,71,72,70,68,89,75,56,29.96,29.92,29.86,10,10,10,10,7,,0.00,0,,188